248  
ASUS41 KPHI 070112  
RWRPHI  
 
REGIONAL WEATHER ROUNDUP  
NATIONAL WEATHER SERVICE MOUNT HOLLY NJ  
900 PM EDT MON APR 06 2020  
 
NOTE: "FAIR" INDICATES FEW OR NO CLOUDS BELOW 12,000 FEET WITH NO  
SIGNIFICANT WEATHER AND/OR S TO VISIBILITY
.  
 
* = STATION DOES NOT REPORT PRECIPITATION (E.G. RAIN, SNOW, ETC.)  
OR FOG.
 
 
NJZ015>026-070200-  
SOUTHERN NEW JERSEY  
 
CITY SKY/WX TMP DP RH WIND PRES REMARKS
 
POMONA FAIR 49 40 71 S6 30.01R  
WILDWOOD* FAIR 47 42 83 S6 30.03R  
MILLVILLE FAIR 49 41 74 S3 30.01R  
WRIGHTSTOWN FAIR 50 39 65 S8 29.98R  
MOUNT HOLLY FAIR 50 31 48 CALM 29.99R  
TRENTON FAIR 57 21 24 NW3 29.98R  
 

 
NJZ001>014-070200-  
NORTHERN NEW JERSEY  
 
CITY SKY/WX TMP DP RH WIND PRES REMARKS
 
SUSSEX FAIR 55 11 17 CALM 29.99R  
ANDOVER* N/A 52 20 28 CALM 29.98R  
MORRISTOWN CLEAR 54 28 37 NW3 29.98R  
NEWARK FAIR 60 18 19 NW10 29.96R  
TETERBORO FAIR 57 21 24 NW6 29.95R  
CALDWELL FAIR 60 18 19 NW6 29.98R  
SOMERVILLE FAIR 52 27 38 CALM 29.97R  
ALLAIRE* FAIR 50 37 61 SW8 29.99R  
TOMS RIVER* FAIR 46 39 76 SW3 30.00R  
 

 
PAZ043-044-047-054-055-060>062-066>071-070200-  
EASTERN PENNSYLVANIA  
 
CITY SKY/WX TMP DP RH WIND PRES REMARKS
 
PHILADELPHIA FAIR 61 24 24 W8 29.99R  
NORTH PHILA FAIR 58 23 26 N3 30.00R  
BLUE BELL* FAIR 49 38 66 CALM 29.99R  
DOYLESTOWN FAIR 54 22 28 CALM 29.98R  
QUAKERTOWN* CLEAR 52 30 43 CALM 29.99  
PERKASIE* FAIR 50 21 32 CALM 30.00R  
POTTSTOWN FAIR 52 30 43 CALM 30.00R  
LANCASTER FAIR 57 26 30 CALM 29.99R  
COATESVILLE FAIR 54 25 32 NW3 30.01S  
WEST CHESTER FAIR 55 28 35 W3 30.00R  
READING FAIR 58 27 30 W5 29.98R  
ALLENTOWN FAIR 54 25 32 CALM 29.98R  
QN CITY/ALNTWN FAIR 55 28 35 CALM 30.00R  
MOUNT POCONO FAIR 43 22 43 CALM 29.98R  
HAZLETON FAIR 46 19 34 CALM 30.02R  
LEHIGHTON FAIR 45 32 61 CALM 30.00R  
WILKES BARRE FAIR 49 23 36 E5 29.98R  
 

 
DEZALL-MDZ008-012-015-019-020-070200-  
DELAWARE AND EASTERN MARYLAND  
 
CITY SKY/WX TMP DP RH WIND PRES REMARKS
 
WILMINGTON FAIR 59 24 26 W5 30.01R  
DOVER FAIR 49 42 74 S3 30.00R  
CHESWOLD CLEAR 54 34 47 W6 30.01R  
GEORGETOWN FAIR 52 42 69 S3 30.02R  
EASTON CLEAR 55 30 38 NE3 30.04R  
STEVENSVILLE FAIR 54 32 43 CALM 30.01R  
ABERDEEN FAIR 48 31 51 CALM 30.01R  
PATUXENT FAIR 55 39 54 CALM 30.00  
OCEAN CITY FAIR 46 42 86 CALM 30.03R  
WALLOPS ISLAND FAIR 48 44 86 S3 30.03R  
CAMBRIDGE CLEAR 52 36 54 CALM 30.01R  
SALISBURY FAIR 49 42 77 E5 30.02R  
 

 
PAZ001-021-NYZ056-072-MDZ011-DCZ001-070200-  
OTHER NEARBY LOCATIONS  
 
CITY SKY/WX TMP DP RH WIND PRES REMARKS
 
HARRISBURG FAIR 52 38 58 CALM 29.99R  
STATE COLLEGE CLEAR 57 16 19 NW3 30.01R  
WILLIAMSPORT FAIR 54 27 35 CALM 29.98R  
BINGHAMTON FAIR 47 23 38 NW7 29.99R  
NEW YORK CITY FAIR 60 19 20 VRB5 29.99R  
BALTIMORE FAIR 60 26 27 NE5 29.99R  
WASHINGTON DC FAIR 61 37 41 SE7 30.00R  
 

 
 
 
CLICK HERE TO GO TO PREVIOUS BULLETINS.

The Nexlab PA Page
The Nexlab NJ Page
The Nexlab DE Page
The Nexlab MD Page Main Text Page